Regional Weather Roundup
Issued by NWS

Home | Current Version | Previous Version | Graphics & Text | Print | Product List | Glossary On
Versions: 1 2 3 4 5 6 7 8 9 10 11 12 13 14 15 16 17 18 19 20 21 22 23 24 25 26 27 28 29 30 31 32 33 34 35 36 37 38 39 40 41 42 43 44 45 46 47 48 49 50
512
ASUS45 KPSR 270010
RWRAZ

ARIZONA HOURLY REGIONAL WEATHER ROUNDUP
NATIONAL WEATHER SERVICE PHOENIX AZ
500 PM MST MON JUN 26 2017

NOTE: FAIR INDICATES FEW OR NO CLOUDS BELOW 12,000 FEET WITH NO
SIGNIFICANT WEATHER AND/OR OBSTRUCTIONS TO VISIBILITY.

AZZ001>003-036-270100-
NORTHWEST ARIZONA

CITY           SKY/WX    TMP DP  RH WIND       PRES   REMARKS
BULLHEAD CITY  SUNNY    115  25   4 S16G24    29.69F HX 105
KINGMAN        SUNNY    102  29   7 SW25G35   29.98F
6HR MIN TEMP:  97; 6HR MAX TEMP: 104;

$$

AZZ004>008-015-016-018-270100-
NORTH CENTRAL ARIZONA

CITY           SKY/WX    TMP DP  RH WIND       PRES   REMARKS
GRAND CANYON   SUNNY     89  21   8 SW17G29   30.23F
6HR MIN TEMP:  86; 6HR MAX TEMP:  93;

PRESCOTT       SUNNY     94  22   7 W10G23    30.12F
6HR MIN TEMP:  89; 6HR MAX TEMP:  97;

FLAGSTAFF      MOSUNNY   85  22  10 SW20G25   30.26F
6HR MIN TEMP:  82; 6HR MAX TEMP:  88;

PAYSON         PTSUNNY   91  37  15 NW10G28   30.15S
PAGE           MOSUNNY  102  26   7 SW10G16   29.94F
6HR MIN TEMP:  94; 6HR MAX TEMP: 103;

$$

AZZ009>014-017-270100-
NORTHEAST ARIZONA

CITY           SKY/WX    TMP DP  RH WIND       PRES   REMARKS
WINSLOW        MOSUNNY   97  28   8 VRB3      30.05F
6HR MIN TEMP:  93; 6HR MAX TEMP: 100;

SAINT JOHNS    MOSUNNY   93  31  11 W17G28    30.10F
6HR MIN TEMP:  88; 6HR MAX TEMP:  97;

WINDOW ROCK    PTSUNNY   86  34  15 VRB3      30.22F
6HR MIN TEMP:  82; 6HR MAX TEMP:  90; 6HR PCP: TRACE;

SHOW LOW       MOSUNNY   82  36  18 SW20      30.23F
$$

AZZ540-542>544-546-548-270100-
GREATER PHOENIX AREA

CITY           SKY/WX    TMP DP  RH WIND       PRES   REMARKS
PHOENIX        MOSUNNY  111  44  10 W13G18    29.75F HX 106
6HR MIN TEMP:  99; 6HR MAX TEMP: 112;

BUCKEYE        SUNNY    111  37   8 W9G22     29.76F HX 104
GLENDALE       MOSUNNY  113  43   9 S14G21    29.76F HX 107
LUKE AFB       SUNNY    111  43  10 SW13      29.74F HX 106
6HR MIN TEMP:  99; 6HR MAX TEMP: 113;

DEER VALLEY    SUNNY    109  44  11 SW12G22   29.77F HX 104
6HR MIN TEMP:  97; 6HR MAX TEMP: 110;

SCOTTSDALE     SUNNY    110  46  11 SW10      29.80F HX 105
6HR MIN TEMP:  98; 6HR MAX TEMP: 110;

MESA-FALCON    SUNNY    108  54  16 W13G22    29.80  HX 106
MESA-GATEWAY   MOSUNNY  108  48  13 W12G18    29.80F HX 104
CHANDLER       SUNNY    109  37   8 NW12      29.77F HX 103
$$

AZZ539-553-270100-
SOUTHWEST MARICOPA COUNTY AND PINAL COUNTY

CITY           SKY/WX    TMP DP  RH WIND       PRES   REMARKS
CASA GRANDE      N/A    N/A N/A N/A MISG        N/A
GILA BEND      SUNNY    111  42  10 W16       29.75F HX 105
6HR MIN TEMP: 102; 6HR MAX TEMP: 112;

$$

AZZ503-504-507>509-270100-
SOUTHEAST ARIZONA

CITY           SKY/WX    TMP DP  RH WIND       PRES   REMARKS
TUCSON         SUNNY    106  43  12 NW13      29.91F HX 101
6HR MIN TEMP:  97; 6HR MAX TEMP: 107;

DAVIS-MONTHAN  SUNNY    104  46  13 NW15      29.90F HX 100
6HR MIN TEMP:  96; 6HR MAX TEMP: 105;

RYAN FIELD     SUNNY    106  43  11 NW14G22   29.89F HX 101
NOGALES        PTSUNNY   97  45  16 S7        30.01S
6HR MIN TEMP:  93; 6HR MAX TEMP: 102;

SIERRA VISTA   PTSUNNY   87  49  26 NW17      30.11S THUNDER
6HR MIN TEMP:  87; 6HR MAX TEMP:  96;

DOUGLAS        MOSUNNY   98  39  13 NW9G21    30.02F
6HR MIN TEMP:  87; 6HR MAX TEMP: 100;

SAFFORD        PTSUNNY  101  39  12 E6        29.95F
6HR MIN TEMP:  89; 6HR MAX TEMP: 103;

$$

AZZ532-270100-
SOUTHWEST ARIZONA

CITY           SKY/WX    TMP DP  RH WIND       PRES   REMARKS
YUMA           SUNNY    112  40   9 VRB5      29.73F HX 106
6HR MIN TEMP:  99; 6HR MAX TEMP: 113;

$$

CAZ041-043-047-048-061-525>527-560>570-270100-
SOUTHERN CALIFORNIA

CITY           SKY/WX    TMP DP  RH WIND       PRES   REMARKS
DOWNTOWN L.A.  SUNNY     84  53  34 VRB5      29.89F
6HR MIN TEMP:  82; 6HR MAX TEMP:  94;

L.A. AIRPORT   SUNNY     80  55  42 SW12      29.90F
6HR MIN TEMP:  76; 6HR MAX TEMP:  82;

SAN DIEGO      MOSUNNY   82  57  42 VRB7      29.91F
6HR MIN TEMP:  67; 6HR MAX TEMP:  83;

BURBANK        SUNNY     93  43  17 S9        29.89F
6HR MIN TEMP:  93; 6HR MAX TEMP: 101;

ONTARIO        SUNNY     98  44  15 W15       29.90F
6HR MIN TEMP:  97; 6HR MAX TEMP: 105;

RIVERSIDE      SUNNY     99  34  10 W16G23    29.90F
6HR MIN TEMP:  97; 6HR MAX TEMP: 107;

PALM SPRINGS   SUNNY    114  25   4 NW20G31   29.78F HX 105
6HR MIN TEMP:  97; 6HR MAX TEMP: 116;

EL CENTRO NAS  MOSUNNY  113  38   8 E6        29.73F HX 106
6HR MIN TEMP: 100; 6HR MAX TEMP: 114;

IMPERIAL       CLOUDY   114  48  11 VRB5      29.71F HX 110
6HR MIN TEMP:  98; 6HR MAX TEMP: 116;

BLYTHE         PTSUNNY  117  25   4 W21G29    29.72F HX 107
6HR MIN TEMP: 104; 6HR MAX TEMP: 118;

NEEDLES        PTSUNNY  117  18   3 W21G31    29.73F HX 106
6HR MIN TEMP: 113; 6HR MAX TEMP: 118;

$$

NVZ020-UTZ003-270100-
SOUTHERN NEVADA-UTAH

CITY           SKY/WX    TMP DP  RH WIND       PRES   REMARKS
LAS VEGAS      SUNNY    107  -5   1 SW20G30   29.79F
6HR MIN TEMP: 101; 6HR MAX TEMP: 109;

SALT LAKE CITY PTSUNNY   98  29   8 SE8       29.88F
6HR MIN TEMP:  90; 6HR MAX TEMP: 100;

$$

NMZ009-TXZ055-270100-
NEW MEXICO-WEST TEXAS

CITY           SKY/WX    TMP DP  RH WIND       PRES   REMARKS
ALBUQUERQUE    CLOUDY    88  44  21 VRB7      30.12F
6HR MIN TEMP:  78; 6HR MAX TEMP:  90;

EL PASO        MOSUNNY   92  52  25 VRB5      30.05F
6HR MIN TEMP:  81; 6HR MAX TEMP:  93;

$$


........................KEY........................
SKY/WX - SKY CONDITION/WEATHER
TMP    - TEMPERATURE IN FAHRENHEIT
DP     - DEW POINT IN FAHRENHEIT
RH     - RELATIVE HUMIDITY IN PERCENT
WIND   - DIRECTION AND SPEED IN MILES PER HOUR (MPH)
VRB    - VARIABLE WIND DIRECTION
PRES   - MEAN SEA LEVEL PRESSURE IN INCHES OF MERCURY
         F - FALLING PRESSURE   R - RISING PRESSURE
         S - STEADY PRESSURE
VSB    - VISIBILITY IN MILES
HX     - HEAT INDEX IN FAHRENHEIT
WCI    - WIND CHILL INDEX IN FAHRENHEIT
TC     - TEMPERATURE IN CELSIUS WHICH IS ALSO KNOWN AS
         TEMPERATURE IN CENTIGRADE
AFB    - AIR FORCE BASE
         LUKE AFB IS LUKE AIR FORCE BASE
         DAVIS-MONTHAN IS DAVIS-MONTHAN AIR FORCE BASE
NAS    - NAVAL AIR STATION
         EL CENTRO NAS IS EL CENTRO NAVAL AIR STATION
N/A    - NOT AVAILABLE





USA.gov is the U.S. government's official web portal to all federal, state and local government web resources and services.